If you wish to contribute or participate in the discussions about articles you are invited to join SKYbrary as a registered user

 Actions

City of Derry Airport

From SKYbrary Wiki

EGAE
Airport
ICAO: EGAE – IATA: LDY
Summary
Name City of Derry Airport
Region Europe
Territory United Kingdom GB.gif
Location Eglinton, County Londonderry, Northern Ireland
Serving Derry
Elevation 7.01 m
23 ft7.01 m
Coordinates 55° 2' 33.12" N, 7° 9' 45.04" W
Runways
Designator Length Width Surface ROPS
2/20 1205 m3,953.412 ft
45 m147.638 ft
ASP no/no
8/26 1852 m6,076.115 ft
45 m147.638 ft
ASP yes/yes


METAR
Observation EGAE 241520Z 04008KT 9999 FEW014 SCT044 16/14 Q1018
Station Eglinton / Londonderr
Date/Time 24 June 2019 15:20:00
Wind direction 40°
Wind speed 08 kts
Lowest cloud amount few clouds
Temperature 16°C
Dew point 14°C
Humidity 87%
QNH 1018 hPa
Weather condition n/a

City of Derry/Londonderry Airport

ICAO: EGAE IATA: LDY

Description

Airport serving the city of Derry/Londonderry in the Northern Ireland, part of the UK.

Climatology

Temperate Marine climate/Oceanic climate (Köppen climate classification Cfb). Moderately cool summer and comparatively warm winter.

Maps

Terrain

Loading map...

Airport Layout

Loading map...


Accidents & Serious Incidents at or in vicinity of EGAE

None on SKYbrary